Weather in Thornhill

Canada     43°48′57″N   79°25′10″W
temp.,
°C
wind,
m/s
gust,
m/s
humid.,
%
clouds,
%
prec.,
mm/h
press.,
hPa
HPBL,
m
23 may, mon
mon2323:00+10nw377599 0.0 1025420
02:00+8nw396660 0.0 1026345
05:00+7nw396198 0.0 1027282
08:00+9nnw4750100 0.0 1028316
11:00+14n3444100 0.0 1027928
14:00+16n3335100 0.0 10261952
17:00+16sse2238100 0.0 10251489
20:00+14ese1148100 0.0 1026167
24 may, tue
tue2423:00+11nne24620 0.0 1026141
02:00+9nne246740 0.0 1026115
05:00+8nne2469100 0.0 1026110
08:00+11ene236482 0.0 1027316
11:00+15ese3542100 0.0 10271097
14:00+17ese453778 0.0 10251241
17:00+18ese44375 0.0 10241169
20:00+15ese255261 0.0 1024307
25 may, wed
wed2523:00+13ene1364100 0.0 102586
02:00+12ne237366 0.0 1026112
05:00+11ne267635 0.0 1025206
08:00+13e376999 0.0 1026379
11:00+17ese5756100 0.0 1026675
14:00+19ese5754100 0.0 1024853
17:00+19ese5855100 0.0 1023646
20:00+16e41165100 0.0 1021357
26 may, thu
thu2623:00+14ese387599 0.0 1020242
02:00+16s4127495 0.0 1018556
05:00+14s41584100 0.0 1017603
08:00+17ssw5147685 0.0 1017641
11:00+22ssw596335 0.0 1015834
14:00+26sw61156100 0.0 10141316
17:00+25sw61259100 0.1 10131445
20:00+22sw3116931 0.1 1012964
27 may, fri
fri2723:00+20ssw21182100 0.0 1012469
02:00+18s3996100 1.3 1010472
05:00+18ssw31197100 0.0 1009494
08:00+17ssw1597100 0.4 1011286
11:00+17s2999100 3.5 1010497
14:00+18nnw4591100 4.3 1009411
17:00+20nne4577100 0.5 1009563
20:00+15ene3696100 3.5 1010438